This is the latest recevied weather packets stored in our database for station/object KD7KCN-5. If no packets are shown the sender has not sent any weather packets the latest 1 day(s).
| Time | Temp. | Humidity | Pressure | Rain* | Wind** | Luminosity | Snow |
|---|---|---|---|---|---|---|---|
| 1777993308 | 10° C | 54% | 1010.2 hPa | 0 mm | 2.68 m/s, 207° | 464 W/m² | - |
| 1777992708 | 10° C | 55% | 1010.2 hPa | 0 mm | 5.81 m/s, 201° | 434 W/m² | - |
| 1777992108 | 9.44° C | 55% | 1010.2 hPa | 0 mm | 6.71 m/s, 206° | 401 W/m² | - |
| 1777991508 | 9.44° C | 55% | 1010.1 hPa | 0 mm | 5.36 m/s, 181° | 366 W/m² | - |
| 1777990908 | 9.44° C | 54% | 1010.2 hPa | 0 mm | 3.13 m/s, 188° | 334 W/m² | - |
| 1777990308 | 9.44° C | 54% | 1010.1 hPa | 0 mm | 0 m/s | 297 W/m² | - |
| 1777989708 | 8.89° C | 55% | 1010.1 hPa | 0 mm | 1.79 m/s, 147° | 264 W/m² | - |
| 1777989108 | 8.33° C | 56% | 1010 hPa | 0 mm | 2.24 m/s, 132° | 225 W/m² | - |
| 1777988508 | 7.78° C | 56% | 1009.8 hPa | 0 mm | 1.34 m/s, 132° | 193 W/m² | - |
| 1777987908 | 7.22° C | 57% | 1010 hPa | 0 mm | 4.02 m/s, 114° | 149 W/m² | - |
| 1777987308 | 7.22° C | 56% | 1009.8 hPa | 0 mm | 3.58 m/s, 122° | 107 W/m² | - |
| 1777986708 | 7.22° C | 56% | 1009.7 hPa | 0 mm | 0.45 m/s, 134° | 74 W/m² | - |
| 1777986108 | 7.22° C | 57% | 1009.5 hPa | 0 mm | 2.68 m/s, 150° | 42 W/m² | - |
| 1777985508 | 6.67° C | 58% | 1009.4 hPa | 0 mm | 1.34 m/s, 183° | 19 W/m² | - |
| 1777984909 | 6.11° C | 59% | 1009.2 hPa | 0 mm | 3.13 m/s, 206° | 5 W/m² | - |
| 1777984308 | 6.11° C | 58% | 1009.2 hPa | 0 mm | 0 m/s | 0 W/m² | - |
| 1777983708 | 6.67° C | 57% | 1009.2 hPa | 0 mm | 0 m/s | 0 W/m² | - |
| 1777983108 | 6.67° C | 57% | 1009.2 hPa | 0 mm | 0 m/s | 0 W/m² | - |
| 1777982508 | 6.11° C | 58% | 1009.1 hPa | 0 mm | 0.45 m/s, 168° | 0 W/m² | - |
| 1777981908 | 6.67° C | 57% | 1009 hPa | 0 mm | 0 m/s | 0 W/m² | - |
| 1777981308 | 6.11° C | 58% | 1009 hPa | 0 mm | 0.89 m/s, 180° | 0 W/m² | - |
| 1777980708 | 6.67° C | 56% | 1009.2 hPa | 0 mm | 0 m/s | 0 W/m² | - |
| 1777980108 | 6.67° C | 56% | 1009.2 hPa | 0 mm | 0 m/s | 0 W/m² | - |
| 1777979509 | 6.11° C | 57% | 1009.3 hPa | 0 mm | 0 m/s | 0 W/m² | - |
| 1777978908 | 6.11° C | 57% | 1009.1 hPa | 0 mm | 0 m/s | 0 W/m² | - |
* Rain latest hour (hover to see other rain measurements)
** Current wind speed in m/s (hover to see current wind gust speed)